Location: Archemont
(49.1579°N, 1.7598°E)
Time: 11:50:17
(UTC+00:00)

SJ-6B - Pass Details

Date: 03 February 2023
Orbit: 501 x 570 km, 97.5° (Epoch: 29 March)

Event Time Altitude Azimuth Distance (km) Brightness Sun altitude
Exits shadow 19:26:48 30° 345° (NNW) 999 4.2 -25.4°
Drops below altitude 10° 19:28:56 10° 346° (NNW) 1,851 5.7 -25.7°
Sets 19:31:07 0° 347° (NNW) 2,762 6.6 -26.1°
